Flag for Australia Weather past 2 weeks in Uluru, Northern Territory, Australia

Now
55 °F

Clear.


Feels Like: 53 °F
Forecast: 46 / 79 °F
Wind: 8 mph from Southeast

Location: Ayers Rock

Current Time: Aug 24, 2014 at 3:11:25 AM

Latest Report: Aug 24, 2014 at 2:30 AM


Visibility: N/A

Pressure: 30.24 "Hg

Humidity: 38%

Dew point: 30 °F

Location of UluruLocation

Historic Weather in Uluru — Graph

°F

Uluru temperature yesterday

Maximum temperature yesterday: 82 °F (at 3:30 PM)
Minimum temperature yesterday: 41 °F (at 6:30 AM)
Average temperature yesterday: 63 °F

Past Weeks' High & Low Weather Summary

 TemperatureHumidityPressure
High82 °F (Aug 23, 3:30 PM)87% (Aug 17, 5:30 AM)30.48 "Hg (Aug 17, 5:30 AM)
Low30 °F (Aug 14, 7:30 AM)9% (Aug 23, 3:30 PM)30.07 "Hg (Aug 20, 3:30 PM)
Average54 °F37%30.25 "Hg
* Reported Aug 9 1:30 AM — Aug 24 1:30 AM, Uluru, Weather by CustomWeather, © 2014

Note: Actual official high and low records may vary slightly from our data, if they occured in-between our weather recording intervals... More about our weather records

Advertising

Uluru weather history for previous 24 hours

 ConditionsComfort  
Time TempWeatherWind HumidityBarometerVisibility
1:30 AM
Aug 24
59 °FClear.9 mph34%30.27 "HgN/A
12:30 AM59 °FClear.8 mph34%30.24 "HgN/A
11:30 PM
Aug 23
61 °FClear.9 mph29%30.24 "HgN/A
10:30 PM63 °FClear.8 mph25%30.27 "HgN/A
9:30 PM64 °FClear.10 mph22%30.24 "HgN/A
8:30 PM63 °FClear.5 mph22%30.24 "HgN/A
7:30 PM72 °FClear.6 mph16%30.21 "HgN/A
6:30 PM77 °FClear.8 mph12%30.18 "HgN/A
5:30 PM81 °FSunny.12 mph11%30.18 "HgN/A
4:30 PM81 °FSunny.10 mph11%30.15 "HgN/A
3:30 PM82 °FSunny.8 mph9%30.15 "HgN/A
2:30 PM81 °FSunny.10 mph11%30.18 "HgN/A
1:30 PM79 °FSunny.7 mph12%30.21 "HgN/A
12:30 PM79 °FSunny.5 mph12%30.21 "HgN/A
11:30 AM75 °FSunny.6 mph14%30.24 "HgN/A
10:30 AM72 °FSunny.No wind16%30.27 "HgN/A
9:30 AM66 °FSunny.5 mph19%30.27 "HgN/A
8:30 AM57 °FSunny.3 mph29%30.27 "HgN/A
7:30 AM43 °FSunny.6 mph46%30.24 "HgN/A
6:30 AM41 °FClear.7 mph49%30.21 "HgN/A
5:30 AM43 °FClear.6 mph46%30.18 "HgN/A
4:30 AM45 °FClear.6 mph46%30.15 "HgN/A
3:30 AM45 °FClear.6 mph42%30.18 "HgN/A
Weather by CustomWeather, © 2014

See weather overviewHow to use our weather pages